Погода в Костино-Отдельце

Россия / Воронежская область     51°31′57″N   41°27′21″E
темп.,
°C
ветер,
м/с
пор.,
м/с
влажн.,
%
обл.,
%
осадки,
мм/ч
давл.,
гПа
погр.,
м
21 июня, пн
пн2100:00+18в49785 0.0 1021127
03:00+17в4775100 0.0 1021109
06:00+18вюв3976100 0.0 1021187
09:00+24вюв585995 0.0 1021418
12:00+26вюв3661100 0.0 1021645
15:00+29вюв564781 0.0 10201324
18:00+27в476352 0.0 1019289
21:00+22в47755 0.0 1020103
22 июня, вт
вт2200:00+20в47745 0.0 1020105
03:00+19в46785 0.0 102188
06:00+20в37800 0.0 1021162
09:00+26в46630 0.0 1021444
12:00+30в454952 0.0 10201024
15:00+31в5546100 0.0 10201384
18:00+29всв46625 0.0 1019280
21:00+23всв457329 0.0 102057
23 июня, ср
ср2300:00+21всв46760 0.0 102079
03:00+21всв47781 0.0 1020111
06:00+21всв487862 0.0 1020157
09:00+27всв5757100 0.0 1020392
12:00+30в564614 0.0 1020812
15:00+32в564331 0.0 10191368
18:00+30в3561100 0.0 1019183
21:00+25всв3468100 0.0 101965
24 июня, чт
чт2400:00+23в346960 0.0 102047
03:00+21всв477327 0.0 102094
06:00+22всв367654 0.0 1020143
09:00+28всв455692 0.0 1020413
12:00+31всв3447100 0.0 10191034
15:00+32св3342100 0.0 10192052
18:00+30всв355765 0.0 1018202
21:00+25всв336872 0.0 101830
25 июня, пт
пт2500:00+22всв33701 0.0 101833
03:00+21всв33734 0.0 101826
06:00+22в24760 0.0 1018117
09:00+27в23590 0.0 1018496
12:00+30в22481 0.0 10171274
15:00+32всв33445 0.0 10161857
18:00+31в23545 0.0 1016816
21:00+25вюв116413 0.0 101511